This demonstration page uses our WeatherBlox Daily Observations layout. Learn more.

Left ArrowRight Arrow

Hourly Observations for March 28, 2020

Temp ( °F °C ) Dew Point ( °F °C ) Humidity (%) Winds ( mph kmh ) Pressure ( in mb ) Visibility ( mi km ) Precip ( " mm )
12:11 am 00:11 Cloudy with Light Rain 48 9 46 8 94 94 NW 6 9 29.71 1006 5 8 0.00 0.00
12:26 am 00:26 Cloudy with Light Rain 48 9 46 8 94 94 Calm 29.69 1005 5 8 0.00 0.00
12:41 am 00:41 Cloudy 48 9 46 8 94 94 N 6 9 29.66 1004 7 11 0.00 0.00
12:56 am 00:56 Cloudy with Light Rain 47 8.5 46 7.7 95 95 ESE 6 9 29.66 1004 6 10 0.00 0.00
1:26 am 01:26 Cloudy with Drizzle 48 9 46 8 94 94 NW 5 7 29.64 1004 5 8 0.00 0.00
1:41 am 01:41 Cloudy with Mist and Fog 46 8 46 8 100 100 NE 6 9 29.61 1003 6 10 0.00 0.00
1:56 am 01:56 Cloudy with Mist and Fog 47 8.4 46 7.6 95 95 Calm 29.64 1004 6 10 0.02 0.51
2:41 am 02:41 Cloudy 48 9 46 8 94 94 Calm 29.64 1004 8 13 0.00 0.00
2:56 am 02:56 Cloudy 47 8.4 46 7.5 94 94 Calm 29.64 1004 7 11 0.00 0.00
3:11 am 03:11 Cloudy 46 8 45 7 93 93 NNE 5 7 29.61 1003 7 11 0.00 0.00
3:26 am 03:26 Cloudy with Mist and Fog 46 8 45 7 93 93 E 5 7 29.61 1003 6 10 0.00 0.00
3:41 am 03:41 Cloudy with Mist and Fog 46 8 45 7 93 93 SE 5 7 29.62 1003 5 8 0.00 0.00
3:56 am 03:56 Cloudy with Mist and Fog 47 8.2 45 7.4 95 95 E 5 7 29.61 1003 5 8 0.00 0.00
4:41 am 04:41 Cloudy 46 8 46 8 100 100 Calm 29.63 1003 8 13 0.00 0.00
4:56 am 04:56 Cloudy 47 8.3 46 7.5 95 95 ENE 5 7 29.61 1003 7 11 0.00 0.00
5:26 am 05:26 Cloudy with Mist and Fog 46 8 45 7 93 93 ENE 6 9 29.59 1002 6 10 0.00 0.00
5:41 am 05:41 Cloudy with Mist and Fog 46 8 46 8 100 100 Calm 29.60 1002 5 8 0.00 0.00
5:56 am 05:56 Cloudy with Mist and Fog 47 8.1 46 7.5 96 96 NE 6 9 29.59 1002 6 10 0.00 0.00
6:11 am 06:11 Cloudy with Mist and Fog 46 8 46 8 100 100 ENE 5 7 29.58 1002 6 10 0.00 0.00
6:41 am 06:41 Cloudy 46 8 45 7 93 93 NE 7 11 29.58 1002 7 11 0.00 0.00
6:56 am 06:56 Cloudy 47 8.2 45 7.4 95 95 E 8 13 29.58 1002 10 16 0.00 0.00
7:26 am 07:26 Cloudy with Mist and Fog 46 8 46 8 100 100 NE 8 13 29.54 1000 4 6 0.00 0.00
7:56 am 07:56 Cloudy with Mist and Fog 47 8.2 46 7.6 96 96 E 6 9 29.55 1001 4 6 0.00 0.00
8:26 am 08:26 Cloudy 48 9 46 8 94 94 S 3 6 29.60 1002 9 14 0.00 0.00
8:56 am 08:56 Cloudy 48 8.7 46 7.8 94 94 ENE 7 11 29.56 1001 9 14 0.00 0.00
9:11 am 09:11 Cloudy 48 9 46 8 94 94 E 9 15 29.54 1000 9 14 0.00 0.00
9:56 am 09:56 Cloudy 49 9.3 47 8.4 94 94 ENE 9 15 29.49 999 10 16 0.00 0.00
10:56 am 10:56 Cloudy with Light Rain 50 10 48 9.1 94 94 ENE 8 13 29.44 997 6 10 0.00 0.00
11:11 am 11:11 Cloudy with Mist and Fog 50 10 48 9 94 94 ENE 10 17 29.42 996 2 3 0.00 0.00
11:56 am 11:56 Cloudy with Light Rain 51 10.8 50 10.2 96 96 E 9 15 29.38 995 5 8 0.01 0.25
12:11 pm 12:11 Cloudy with Mist and Fog 52 11 52 11 100 100 ESE 9 15 29.38 995 3 5 0.00 0.00
12:26 pm 12:26 Cloudy with Drizzle 54 12 52 11 94 94 SSE 7 11 29.36 994 2 4 0.00 0.00
12:41 pm 12:41 Cloudy with Mist and Fog 54 12 54 12 100 100 SSE 6 9 29.34 994 4 6 0.00 0.00
12:56 pm 12:56 Cloudy with Mist and Fog 55 12.7 54 12.1 96 96 SE 13 20 29.34 994 5 8 0.00 0.00
1:26 pm 13:26 Cloudy 59 15 55 13 88 88 S 10 17 29.34 994 10 16 0.00 0.00
1:41 pm 13:41 Cloudy 59 15 55 13 88 88 S 14 22 29.33 993 10 16 0.00 0.00
1:56 pm 13:56 Cloudy with Light Rain 59 14.8 54 12.3 85 85 SW 6 9 29.32 993 10 16 0.00 0.00
2:01 pm 14:01 Cloudy with Rain 57 14 54 12 88 88 W 12 19 29.31 993 7 11 0.00 0.00
2:16 pm 14:16 Cloudy 59 15 55 13 88 88 SSW 9 15 29.32 993 9 14 0.00 0.00
2:56 pm 14:56 Mostly Cloudy 62 16.9 47 8.3 57 57 SSW 14 22 29.30 992 10 16 0.05 1.27
3:20 pm 15:20 Cloudy with Light Rain 55 13 48 9 77 77 SSW 18 30 29.33 993 8 13 0.00 0.00
3:56 pm 15:56 Mostly Cloudy 58 14.4 51 10.6 78 78 SSW 14 22 29.31 993 10 16 0.01 0.25
4:03 pm 16:03 Mostly Cloudy 57 14 50 10 77 77 WSW 13 20 29.32 993 10 16 0.00 0.00
4:08 pm 16:08 Mostly Cloudy with Rain 57 14 50 10 77 77 WSW 15 24 29.32 993 9 14 0.00 0.00
4:56 pm 16:56 Mostly Cloudy 57 14.1 48 9.1 72 72 SW 25 41 29.32 993 10 16 0.02 0.51
5:26 pm 17:26 Mostly Cloudy 54 12 48 9 82 82 W 23 37 29.36 994 10 16 0.00 0.00
5:56 pm 17:56 Cloudy 51 10.5 45 7 79 79 W 22 35 29.39 995 10 16 0.00 0.00
6:41 pm 18:41 Cloudy 48 9 43 6 82 82 W 21 33 29.43 997 10 16 0.00 0.00
6:56 pm 18:56 Cloudy 47 8.6 43 5.9 83 83 W 20 31 29.44 997 10 16 0.00 0.00
7:04 pm 19:04 Cloudy 46 8 43 6 87 87 W 22 35 29.45 997 10 16 0.00 0.00
7:19 pm 19:19 Cloudy with Drizzle 45 7 41 5 87 87 W 22 35 29.46 998 10 16 0.00 0.00
7:34 pm 19:34 Cloudy with Drizzle 43 6 39 4 87 87 WNW 31 50 29.47 998 10 16 0.00 0.00
7:49 pm 19:49 Cloudy 43 6 37 3 81 81 WNW 21 33 29.49 999 10 16 0.00 0.00
7:56 pm 19:56 Cloudy 42 5.7 38 3.2 84 84 WNW 24 39 29.49 999 10 16 0.00 0.00
8:33 pm 20:33 Cloudy 41 5 36 2 81 81 WNW 25 41 29.53 1000 10 16 0.00 0.00
8:48 pm 20:48 Cloudy 41 5 36 2 81 81 WNW 20 31 29.54 1001 10 16 0.00 0.00
8:56 pm 20:56 Cloudy 40 4.7 36 2.1 83 83 WNW 23 37 29.54 1001 10 16 0.00 0.00
9:11 pm 21:11 Cloudy 41 5 36 2 81 81 WNW 25 41 29.55 1001 10 16 0.00 0.00
9:26 pm 21:26 Cloudy 41 5 36 2 81 81 WNW 22 35 29.57 1001 10 16 0.00 0.00
9:32 pm 21:32 Cloudy 41 5 36 2 81 81 WNW 18 30 29.57 1002 10 16 0.00 0.00
9:47 pm 21:47 Cloudy 41 5 36 2 81 81 WNW 23 37 29.58 1002 10 16 0.00 0.00
9:56 pm 21:56 Cloudy with Drizzle 40 4.6 36 2 83 83 WNW 22 35 29.58 1002 10 16 0.00 0.00
10:56 pm 22:56 Cloudy 41 5 36 2 81 81 WNW 29 46 29.61 1003 10 16 0.00 0.00
11:11 pm 23:11 Cloudy 41 5 36 2 81 81 WNW 23 37 29.62 1003 10 16 0.00 0.00
11:17 pm 23:17 Cloudy 41 5 36 2 81 81 WNW 22 35 29.63 1004 10 16 0.00 0.00
11:47 pm 23:47 Cloudy 41 5 37 3 87 87 NW 16 26 29.64 1004 10 16 0.00 0.00
11:56 pm 23:56 Cloudy 42 5.4 37 2.7 83 83 NW 22 35 29.65 1004 10 16 0.00 0.00

Powered by AerisWeather